Simultaneous Nadir Overpasses (SNOs) Predictions

Prediction of SNOs between NOAA-19 and TERRA Satellite Orbit:

Table of predicted SNOs for the next 14.0 days since TLE Epoch: 10/10/2020
Index Date (NOAA-19) Time (NOAA-19) Lat,Lon (NOAA-19) SZA (NOAA-19 ) Date (TERRA) Time (TERRA) Lat,Lon (TERRA) SZA (TERRA ) Distance(km) Time Diff (sec)
1 10/11/2020 22:14:25 79.78,-123.50 88.87 10/11/2020 22:14:46 79.79,-123.37 88.90 2.95 21
2 10/11/2020 23:05:22 -79.76, 43.97 91.12 10/11/2020 23:04:14 -79.75, 44.01 91.15 0.97 68
3 10/14/2020 03:47:38 -79.78, -26.82 90.29 10/14/2020 03:48:30 -79.80, -26.72 90.25 2.62 52
4 10/14/2020 04:38:39 79.75, 140.78 89.74 10/14/2020 04:37:57 79.76, 140.63 89.71 3.14 42
5 10/16/2020 09:21:06 80.07, 66.40 90.47 10/16/2020 09:22:07 80.01, 71.58 90.94 99.74 61
6 10/16/2020 10:11:53 -79.77,-122.66 89.44 10/16/2020 10:11:41 -79.77,-122.71 89.45 0.99 12
7 10/18/2020 15:45:10 79.80, -26.22 91.39 10/18/2020 15:45:24 79.77, -26.15 91.38 3.67 14
8 10/18/2020 16:36:02 -79.60, 143.25 88.55 10/18/2020 16:34:53 -79.71, 141.01 88.72 46.28 69
9 10/20/2020 21:18:24 -79.79, 70.69 87.80 10/20/2020 21:19:08 -79.79, 70.52 87.80 3.47 44
10 10/20/2020 22:09:24 79.78,-121.96 92.22 10/20/2020 22:08:34 79.78,-121.91 92.20 1.24 50
11 10/23/2020 02:51:39 79.80, 167.34 93.00 10/23/2020 02:52:50 79.81, 167.30 93.04 1.52 71
